Location: Eaton
(41.3139°N, 82.0207°W)
Time: 01:11:16
(UTC+00:00)

Cosmos 2100 Rocket - Visible Passes

Search period start: 23 October 2021 00:00
Search period end: 02 November 2021 00:00
Orbit: 957 x 1000 km, 82.9° (Epoch: 22 October)

Date Brightness Start Highest point End Pass type
(mag) Time Alt. Az. Time Alt. Az. Time Alt. Az.
23 Oct 4.2 00:26:10 10° SSE 00:32:04 45° E 00:38:04 10° NNE visible
23 Oct 5.7 02:12:21 10° SW 02:17:41 28° WNW 02:23:05 10° NNW visible
23 Oct 5.7 11:22:22 10° N 11:28:15 38° ENE 11:34:03 10° SE visible
23 Oct 5.6 23:12:07 10° E 23:13:50 11° ENE 23:15:35 10° ENE visible
24 Oct 3.9 00:51:52 10° S 00:58:10 82° E 01:04:33 10° N visible
24 Oct 6.5 02:40:44 10° WSW 02:44:24 16° WNW 02:48:07 10° NNW visible
24 Oct 5.0 23:34:53 10° SE 23:39:32 22° E 23:44:13 10° NE visible
25 Oct 4.5 01:18:16 10° SSW 01:24:26 56° W 01:30:42 10° N visible
25 Oct 6.6 10:30:26 10° NNE 10:34:50 19° ENE 10:39:10 10° ESE visible
25 Oct 4.4 23:59:37 10° SSE 00:05:25 40° E 00:11:16 10° NNE visible
26 Oct 5.6 01:45:23 10° SW 01:50:54 31° WNW 01:56:31 10° NNW visible
26 Oct 5.8 10:55:46 10° N 11:01:29 34° ENE 11:07:07 10° SE visible
27 Oct 3.9 00:25:12 10° S 00:31:28 74° E 00:37:50 10° N visible
27 Oct 6.4 02:13:29 10° WSW 02:17:36 18° WNW 02:21:44 10° NNW visible
27 Oct 4.7 11:21:38 10° N 11:27:56 61° E 11:34:09 10° SSE visible
27 Oct 5.2 23:08:35 10° SE 23:12:55 20° E 23:17:17 10° NE visible
28 Oct 4.4 00:51:28 10° SSW 00:57:42 63° W 01:04:03 10° N visible
28 Oct 6.7 10:04:02 10° NNE 10:08:02 17° ENE 10:12:00 10° ESE visible
28 Oct 4.5 23:33:06 10° SSE 23:38:46 36° E 23:44:28 10° NNE visible
29 Oct 5.5 01:18:27 10° SW 01:24:09 35° WNW 01:29:56 10° N visible
29 Oct 6.0 10:29:11 10° NNE 10:34:44 30° ENE 10:40:10 10° SE visible
29 Oct 3.9 23:58:33 10° S 00:04:47 66° E 00:11:06 10° NNE visible
30 Oct 6.3 01:46:19 10° WSW 01:50:47 20° WNW 01:55:18 10° NNW visible
30 Oct 4.9 10:54:58 10° N 11:01:12 55° ENE 11:07:19 10° SSE visible
31 Oct 4.3 00:24:42 10° SSW 00:30:59 70° W 00:37:23 10° N visible
31 Oct 6.9 02:16:39 10° WNW 02:17:40 10° WNW 02:18:41 10° NW visible
31 Oct 6.8 09:37:41 10° NNE 09:41:13 15° ENE 09:44:43 10° E visible
31 Oct 4.1 11:21:07 10° N 11:27:30 84° W 11:33:45 10° S visible
31 Oct 4.7 23:06:37 10° SSE 23:12:07 32° E 23:17:40 10° NNE visible
01 Nov 5.3 00:51:32 10° SW 00:57:24 39° WNW 01:03:20 10° N visible
01 Nov 6.1 10:02:38 10° NNE 10:07:57 27° ENE 10:13:11 10° SE visible
01 Nov 4.0 23:31:55 10° S 23:38:06 59° E 23:44:22 10° NNE visible
